Location: Diati
(11.8376°N, 2.5966°E)
Time: 17:59:38
(UTC+00:00)

H-2A R/B - Pass Details

Date: 21 September 2020
Orbit: 734 x 836 km, 98.2° (Epoch: 19 October)

Event Time Altitude Azimuth Distance (km) Brightness Sun altitude
Exits shadow 19:15:45 38° 154° (SSE) 1,115 2.6 -22.7°
Maximum altitude 19:17:37 74° 78° (ENE) 766 1.7 -23.2°
Drops below altitude 10° 19:22:33 10° 353° (N) 2,254 4.6 -24.4°
Sets 19:24:51 0° 351° (N) 3,189 5.4 -25.0°
